Terminal Aerodrome Forecast
Issued by NWS New Orleans/Baton Rouge, LA

Home | Current Version | Previous Version | Text Only | Print | Product List | Glossary On
Versions: 1 2 3 4 5 6 7 8 9 10 11 12 13 14 15 16 17 18 19
000
FTUS44 KLIX 192300
TAFBTR
TAF
KBTR 192332Z 2000/2024 11006KT P6SM VCSH SCT035 BKN060
     FM200100 10004KT P6SM FEW110 SCT250
      TEMPO 2010/2013 5SM BR
     FM201300 05004KT P6SM SCT250
     FM201700 07008KT P6SM SCT045=

USA.gov is the U.S. government's official web portal to all federal, state and local government web resources and services.